Погода в Нове

Россия / Вологодская область     59°05′00″N   38°10′15″E
темп.,
°C
ветер,
м/с
пор.,
м/с
влажн.,
%
обл.,
%
осадки,
мм/ч
давл.,
гПа
погр.,
м
22 июня, вт
вт2200:00+21ююз227812 0.0 102029
03:00+20ююз2281100 0.0 102026
06:00+23ююз2379100 0.0 1020111
09:00+26ююз236498 0.0 1020367
12:00+30ю33455 0.0 10201101
15:00+31ю33387 0.0 10201301
18:00+28ю36475 0.0 1019386
21:00+22ю37706 0.0 1019107
23 июня, ср
ср2300:00+21ю22713 0.0 101926
03:00+19ююв237775 0.0 102055
06:00+21ююз257750 0.1 1020122
09:00+26ююз3557100 0.1 1020311
12:00+31ююз353834 0.0 10201089
15:00+32ю443677 0.0 1019961
18:00+29ю374788 0.0 1018295
21:00+24ююз38675 0.0 1018120
24 июня, чт
чт2400:00+22ююз38716 0.0 1018131
03:00+21зюз27735 0.0 1019124
06:00+23ююз26725 0.0 1018173
09:00+28юз36522 0.0 1018514
12:00+32ююз35370 0.0 10171729
15:00+34ююз46320 0.0 10161906
18:00+31ю34410 0.0 1015377
21:00+25ююз412590 0.0 1014329
25 июня, пт
пт2500:00+21зсз41487100 0.9 1017474
03:00+19ю119298 1.0 101611
06:00+20з358612 0.0 1016222
09:00+25зюз34556 0.0 1016689
12:00+29зюз354771 0.0 10151149
15:00+31ююз35405 0.1 10141640
18:00+29ююз454960 0.6 1013498
21:00+19ссв3695100 2.6 1015183
26 июня, сб
сб2600:00+18ю239299 0.1 101462
03:00+17зюз019610 0.1 101411
06:00+19в119287 0.0 1013143
09:00+24юв1167100 0.0 1013639
12:00+28сз125196 0.0 10131395
15:00+29с124980 0.0 10121782
18:00+28всв23625 0.3 10121195
21:00+23всв25820 0.3 1012112